Regional Weather Roundup
Issued by NWS

Home | Current Version | Previous Version | Text Only | Print | Product List | Glossary On
Versions: 1 2 3 4 5 6 7 8 9 10 11 12 13 14 15 16 17 18 19 20 21 22 23 24 25 26 27 28 29 30 31 32 33 34 35 36 37 38 39 40 41 42 43 44 45 46 47 48 49 50
000
ASUS44 KMEG 031210
RWRTN
TENNESSEE HOURLY STATE WEATHER ROUNDUP
NATIONAL WEATHER SERVICE MEMPHIS TN
700 AM CDT FRI JUL 03 2015

TNZ002-004-019-021-049-052-054-088>092-031300-
WEST TENNESSEE

CITY           SKY/WX    TMP DP  RH WIND       PRES   REMARKS
MEMPHIS INTL   TSTM      72  70  93 W7        29.90S FOG
NWS MEMPHIS      N/A     73 N/A N/A MISG        N/A
JACKSON        MOSUNNY   73  69  87 CALM      29.89S
DYERSBURG        N/A    N/A N/A N/A MISG        N/A
PARIS          PTSUNNY   68  66  94 SW6       29.88F
LEXINGTON      PTSUNNY   70  70 100 CALM      29.89S
$$

TNZ008-025-027-028-033-062-065-066-031300-
NORTH MIDDLE TENNESSEE

CITY           SKY/WX    TMP DP  RH WIND       PRES   REMARKS
NASHVILLE      PTSUNNY   72  71  97 SW7       29.88S
CLARKSVILLE    CLOUDY    72  71  97 SW6       29.86S
SMYRNA         CLOUDY    73  70  91 SW7       29.89R
COOKEVILLE     CLOUDY    73  73 100 SW6       29.89S
CROSSVILLE     CLOUDY    72  68  87 SW8       29.95R
$$

TNZ061-075-076-078-094-096-097-031300-
SOUTH MIDDLE TENNESSEE

CITY           SKY/WX    TMP DP  RH WIND       PRES   REMARKS
FAYETTEVILLE     N/A     70  68  94 W8        29.96R
TULLAHOMA      PTSUNNY   70  68  94 SW12      29.95S
WINCHESTER     PTSUNNY   72  70  94 W6        29.95S
MCMINNVILLE    MOSUNNY   73  73 100 SW6       29.92S
COLUMBIA       PTSUNNY   70  70 100 SW7       29.90S
SHELBYVILLE    MOSUNNY  N/A N/A N/A MISG        N/A
$$

TNZ017-018-042-046-047-031300-
NORTHEAST TENNESSEE

CITY           SKY/WX    TMP DP  RH WIND       PRES   REMARKS
TRI CITIES     CLOUDY    69  67  93 S3        29.95F
ELIZABETHTON   CLOUDY    64  64 100 CALM      29.97S
$$

TNZ012-013-036-069-073-074-031300-
CENTRAL EAST TENNESSEE

CITY           SKY/WX    TMP DP  RH WIND       PRES   REMARKS
KNOXVILLE      CLOUDY    70  67  90 CALM      29.90
OAK RIDGE      CLOUDY    71  68  90 CALM      29.92S
GATLINBURG     SUNNY     68  66  94 CALM      29.91S
MORRISTOWN     SUNNY     70  70 100 SW3       29.94R
$$

TNZ083-085-099-031300-
SOUTHEAST TENNESSEE

CITY           SKY/WX    TMP DP  RH WIND       PRES   REMARKS
CHATTANOOGA    LGT RAIN  74  71  91 S5        29.93R FOG
$$

SKY/WX REPORTED AS FAIR MEANS FEW OR NO CLOUDS BELOW
12 THOUSAND FEET.



USA.gov is the U.S. government's official web portal to all federal, state and local government web resources and services.